Delaware, OH

8:41 PM EDT on September 15, 2019 (GMT -0400)
Delaware Municipal

Weather History for KDLZ - August, 2019

Change the Weather History Date:

Sunday, August 25, 2019

  Actual Average Record
Temperature  
Mean Temperature 64 °F -  
Max Temperature 78 °F 80 °F 95 °F (1959)
Min Temperature 51 °F 57 °F 41 °F (1942)
Growing Degree Days 14 (Base 50)    
Moisture  
Dew Point 53 °F    
Average Humidity 67    
Maximum Humidity 94    
Minimum Humidity 42    
Precipitation  
Precipitation 0.00 in - - ()
Sea Level Pressure  
Sea Level Pressure 30.15 in    
Wind  
Wind Speed 6 mph (East)    
Max Wind Speed 14 mph    
Max Gust Speed 20 mph    
Visibility 10 miles    
Events      
Averages and records for this station are not official NWS values.
T = Trace of Precipitation, MM = Missing Value Source: NWS Daily Summary

Daily Weather History Graph

Daily Weather History Graph

Search for Another Location

Airport or City:

Astronomy

Aug. 25, 2019 Rise Set
Actual Time 6:52 AM EDT 8:15 PM EDT
Civil Twilight 6:24 AM EDT 8:43 PM EDT
Nautical Twilight 5:50 AM EDT 9:17 PM EDT
Astronomical Twilight 5:14 AM EDT 9:53 PM EDT
Moon 1:26 AM EDT (8/25) 4:35 PM EDT (8/25)
Length of Visible Light 14h 19m
Length of Day
13h 22m
Waning Crescent, 29% of the Moon is Illuminated
Aug 25
Waning Crescent
Aug 30
New
Sep 5
First Quarter
Sep 14
Full
Sep 21
Last Quarter

Hourly Weather History & Observations

Time (EDT) Temp. Dew Point Humidity Pressure Visibility Wind Dir Wind Speed Gust Speed Precip Events Conditions
12:15 AM 59.0 °F 53.6 °F 82% 30.23 in 10.0 mi ENE 6.9 mph - N/A   Clear
12:36 AM 59.0 °F 53.6 °F 82% 30.23 in 10.0 mi ENE 4.6 mph - N/A   Clear
12:55 AM 59.0 °F 53.6 °F 82% 30.22 in 10.0 mi NE 5.8 mph - N/A   Clear
1:16 AM 59.0 °F 53.6 °F 82% 30.22 in 10.0 mi NE 6.9 mph - N/A   Clear
1:35 AM 59.0 °F 53.6 °F 82% 30.21 in 10.0 mi ENE 6.9 mph - N/A   Clear
1:56 AM 59.0 °F 53.6 °F 82% 30.20 in 10.0 mi ENE 6.9 mph - N/A   Clear
2:15 AM 59.0 °F 53.6 °F 82% 30.20 in 10.0 mi ENE 5.8 mph - N/A   Clear
2:35 AM 57.2 °F 51.8 °F 82% 30.20 in 10.0 mi ENE 5.8 mph - N/A   Clear
2:55 AM 57.2 °F 51.8 °F 82% 30.19 in 10.0 mi ENE 5.8 mph - N/A   Clear
3:15 AM 55.4 °F 51.8 °F 88% 30.19 in 10.0 mi ENE 4.6 mph - N/A   Clear
3:36 AM 55.4 °F 51.8 °F 88% 30.19 in 10.0 mi ENE 3.5 mph - N/A   Clear
3:56 AM 55.4 °F 51.8 °F 88% 30.19 in 10.0 mi Calm Calm - N/A   Clear
4:16 AM 53.6 °F 50.0 °F 88% 30.18 in 10.0 mi ENE 4.6 mph - N/A   Clear
4:35 AM 53.6 °F 50.0 °F 88% 30.18 in 10.0 mi Calm Calm - N/A   Clear
4:56 AM 53.6 °F 50.0 °F 88% 30.18 in 10.0 mi Calm Calm - N/A   Clear
5:15 AM 53.6 °F 50.0 °F 88% 30.18 in 10.0 mi NE 3.5 mph - N/A   Clear
5:35 AM 53.6 °F 50.0 °F 88% 30.17 in 10.0 mi NE 4.6 mph - N/A   Clear
5:55 AM 53.6 °F 50.0 °F 88% 30.17 in 10.0 mi ENE 3.5 mph - N/A   Clear
6:16 AM 53.6 °F 50.0 °F 88% 30.17 in 10.0 mi ENE 4.6 mph - N/A   Clear
6:35 AM 53.6 °F 50.0 °F 88% 30.17 in 10.0 mi ENE 3.5 mph - N/A   Clear
6:55 AM 53.6 °F 50.0 °F 88% 30.18 in 10.0 mi NE 5.8 mph - N/A   Clear
7:16 AM 51.8 °F 50.0 °F 94% 30.18 in 10.0 mi Calm Calm - N/A   Clear
7:35 AM 53.6 °F 50.0 °F 88% 30.19 in 10.0 mi Calm Calm - N/A   Clear
7:55 AM 55.4 °F 51.8 °F 88% 30.19 in 10.0 mi East 3.5 mph - N/A   Clear
8:15 AM 55.4 °F 51.8 °F 88% 30.19 in 10.0 mi East 4.6 mph - N/A   Clear
8:35 AM 59.0 °F 51.8 °F 77% 30.19 in 10.0 mi East 6.9 mph - N/A   Clear
8:55 AM 60.8 °F 51.8 °F 72% 30.18 in 10.0 mi East 8.1 mph - N/A   Clear
9:15 AM 60.8 °F 53.6 °F 77% 30.18 in 10.0 mi East 9.2 mph - N/A   Clear
9:36 AM 62.6 °F 53.6 °F 72% 30.18 in 10.0 mi East 9.2 mph - N/A   Clear
9:55 AM 64.4 °F 53.6 °F 68% 30.18 in 10.0 mi East 10.4 mph - N/A   Clear
10:15 AM 64.4 °F 53.6 °F 68% 30.18 in 10.0 mi ESE 6.9 mph - N/A   Clear
10:35 AM 68.0 °F 55.4 °F 64% 30.18 in 10.0 mi East 6.9 mph - N/A   Clear
10:56 AM 68.0 °F 55.4 °F 64% 30.18 in 10.0 mi SE 8.1 mph - N/A   Clear
11:15 AM 69.8 °F 55.4 °F 60% 30.18 in 10.0 mi ESE 5.8 mph - N/A   Clear
11:35 AM 69.8 °F 55.4 °F 60% 30.18 in 10.0 mi SSE 5.8 mph - N/A   Clear
11:56 AM 71.6 °F 55.4 °F 57% 30.18 in 10.0 mi ESE 6.9 mph - N/A   Clear
12:16 PM 73.4 °F 55.4 °F 53% 30.17 in 10.0 mi ESE 5.8 mph - N/A   Clear
12:35 PM 73.4 °F 53.6 °F 50% 30.17 in 10.0 mi SE 5.8 mph - N/A   Scattered Clouds
12:56 PM 73.4 °F 55.4 °F 53% 30.16 in 10.0 mi East 8.1 mph - N/A   Mostly Cloudy
1:16 PM 75.2 °F 55.4 °F 50% 30.15 in 10.0 mi ESE 6.9 mph - N/A   Scattered Clouds
1:36 PM 73.4 °F 53.6 °F 50% 30.15 in 10.0 mi SE 11.5 mph - N/A   Mostly Cloudy
1:55 PM 75.2 °F 51.8 °F 44% 30.15 in 10.0 mi SE 8.1 mph 17.3 mph N/A   Scattered Clouds
2:16 PM 77.0 °F 53.6 °F 44% 30.15 in 10.0 mi East 10.4 mph - N/A   Scattered Clouds
2:35 PM 77.0 °F 53.6 °F 44% 30.14 in 10.0 mi East 10.4 mph - N/A   Scattered Clouds
2:56 PM 78.8 °F 53.6 °F 42% 30.13 in 10.0 mi ESE 12.7 mph 17.3 mph N/A   Scattered Clouds
3:15 PM 77.0 °F 53.6 °F 44% 30.13 in 10.0 mi East 5.8 mph - N/A   Scattered Clouds
3:36 PM 77.0 °F 53.6 °F 44% 30.12 in 10.0 mi ESE 6.9 mph 16.1 mph N/A   Scattered Clouds
3:56 PM 77.0 °F 53.6 °F 44% 30.12 in 10.0 mi ESE 12.7 mph 19.6 mph N/A   Scattered Clouds
4:15 PM 78.8 °F 53.6 °F 42% 30.11 in 10.0 mi East 13.8 mph 17.3 mph N/A   Scattered Clouds
4:36 PM 78.8 °F 55.4 °F 44% 30.11 in 10.0 mi East 11.5 mph - N/A   Mostly Cloudy
4:56 PM 77.0 °F 53.6 °F 44% 30.11 in 10.0 mi East 9.2 mph - N/A   Mostly Cloudy
5:16 PM 77.0 °F 53.6 °F 44% 30.10 in 10.0 mi East 10.4 mph 17.3 mph N/A   Scattered Clouds
5:36 PM 75.2 °F 53.6 °F 47% 30.09 in 10.0 mi East 10.4 mph - N/A   Clear
5:56 PM 75.2 °F 53.6 °F 47% 30.09 in 10.0 mi East 9.2 mph - N/A   Clear
6:16 PM 73.4 °F 53.6 °F 50% 30.09 in 10.0 mi East 9.2 mph - N/A   Clear
6:36 PM 73.4 °F 53.6 °F 50% 30.09 in 10.0 mi East 8.1 mph - N/A   Clear
6:56 PM 73.4 °F 53.6 °F 50% 30.08 in 10.0 mi East 8.1 mph - N/A   Clear
7:15 PM 73.4 °F 53.6 °F 50% 30.08 in 10.0 mi East 8.1 mph - N/A   Clear
7:36 PM 71.6 °F 53.6 °F 53% 30.08 in 10.0 mi East 8.1 mph - N/A   Clear
7:56 PM 71.6 °F 53.6 °F 53% 30.08 in 10.0 mi East 9.2 mph - N/A   Clear
8:16 PM 69.8 °F 53.6 °F 56% 30.08 in 10.0 mi East 6.9 mph - N/A   Clear
8:36 PM 68.0 °F 53.6 °F 60% 30.08 in 10.0 mi East 6.9 mph - N/A   Clear
8:56 PM 66.2 °F 53.6 °F 64% 30.08 in 10.0 mi ESE 5.8 mph - N/A   Clear
9:16 PM 66.2 °F 53.6 °F 64% 30.08 in 10.0 mi East 5.8 mph - N/A   Clear
9:35 PM 64.4 °F 53.6 °F 68% 30.09 in 10.0 mi East 4.6 mph - N/A   Clear
9:55 PM 62.6 °F 53.6 °F 72% 30.09 in 10.0 mi East 5.8 mph - N/A   Clear
10:16 PM 62.6 °F 53.6 °F 72% 30.09 in 10.0 mi East 4.6 mph - N/A   Clear
10:36 PM 62.6 °F 53.6 °F 72% 30.10 in 10.0 mi East 5.8 mph - N/A   Clear
10:55 PM 62.6 °F 53.6 °F 72% 30.10 in 10.0 mi East 6.9 mph - N/A   Clear
11:15 PM 60.8 °F 53.6 °F 77% 30.10 in 10.0 mi East 6.9 mph - N/A   Clear
11:35 PM 60.8 °F 53.6 °F 77% 30.10 in 10.0 mi East 6.9 mph - N/A   Clear
11:56 PM 60.8 °F 53.6 °F 77% 30.09 in 10.0 mi East 5.8 mph - N/A   Clear